Location: San Vito
(41.8833°N, 12.9833°E)
Time: 06:42:16
(UTC+00:00)

Daily predictions for brighter satellites

Satellite Brightness Start Highest point End
(mag) Time Altitude Azimuth Time Altitude Azimuth Time Altitude Azimuth
Meteor 1-21 4.5 17:17:56 10° NNW 17:23:32 77° W 17:29:07 10° S
Cosmos 2263 Rocket 4.3 17:19:30 10° WSW 17:24:18 29° NW 17:29:10 10° N
Cosmos 1025 Rocket 3.5 17:20:57 10° N 17:25:06 40° ENE 17:29:14 10° SSE
MOS 1 Rocket 4.3 17:22:06 10° NE 17:25:24 21° E 17:28:40 10° SE
USA 238 DEB 3.9 17:20:15 10° NNW 17:27:30 68° NE 17:34:59 10° SE
Cosmos 1844 Rocket 2.7 17:22:03 10° SSW 17:27:34 69° ESE 17:33:08 10° NNE
USA 238 3.9 17:20:22 10° NNW 17:27:36 68° NE 17:35:05 10° SE
Cosmos 1689 Rocket 3.4 17:25:50 10° N 17:28:41 44° WNW 17:31:30 10° SSW
Sich 1 Rocket 3.7 17:24:22 10° S 17:28:54 88° WNW 17:33:29 10° N
Lacrosse 5 rocket 4.0 17:27:37 10° NNW 17:28:55 11° N 17:30:13 10° NNE
YAOGAN 1 2.7 17:27:06 10° SSE 17:31:17 51° ENE 17:35:29 10° N
Cosmos 1125 Rocket 3.7 17:26:59 10° S 17:32:07 52° ESE 17:37:16 10° NNE
Exosat Rocket 4.0 17:28:57 10° S 17:34:04 39° ESE 17:38:42 10° NE
Okean 2 Rocket 3.1 17:31:23 10° S 17:35:50 70° E 17:40:17 10° NNE
Cosmos 2278 Rocket 3.6 17:34:12 10° SE 17:37:21 15° E 17:40:29 10° ENE
SKYMED 2 4.3 17:34:49 10° N 17:39:07 59° WNW 17:43:22 10° SSW
Cosmos 1707 2.7 17:37:19 10° N 17:41:10 88° W 17:44:59 10° S
Cosmos 1844 3.7 17:35:48 10° SSW 17:41:28 72° ESE 17:47:06 10° NNE
Cosmos 1536 Rocket 3.9 17:38:21 10° N 17:42:40 46° ENE 17:46:58 10° SSE
Cosmos 2150 Rocket 4.2 17:39:26 10° SSW 17:44:50 81° WNW 17:50:20 10° NNE
Cosmos 1513 Rocket 4.5 17:38:38 10° S 17:44:52 82° E 17:51:01 10° N
EP 2 4.5 17:44:28 10° SSW 17:47:29 65° ESE 17:50:28 10° NE
Abrixas rocket 2.2 17:46:54 10° NW 17:49:41 50° NNE 17:51:29 19° E
NOSS 3-2 (A) 4.2 17:43:05 10° NW 17:50:47 85° WSW 17:59:22 10° SSE
Cosmos 1833 Rocket 4.1 17:51:19 10° N 17:55:27 20° NE 17:58:04 15° E
CSL-04 Rocket 3.7 17:51:06 10° SSE 17:56:29 67° ENE 18:01:59 10° N
Cosmos 1939 Rocket 4.5 17:53:06 10° SSW 17:56:59 39° W 18:00:54 10° NNW
CSL-04 Debris 4.1 17:51:45 10° SSE 17:57:05 71° ENE 18:02:28 10° N
HJ-1C 3.5 17:55:16 10° SSE 17:58:28 51° ENE 18:01:42 10° N
Cosmos 1048 Rocket 4.1 17:54:22 10° NNW 17:59:44 84° WSW 18:05:06 10° SSE
Cosmos 1464 Rocket 4.1 17:53:49 10° S 17:59:56 80° W 18:06:11 10° N
CZ-2C R/B 3.2 17:57:35 10° SSE 18:02:58 85° ENE 18:08:40 10° NNW
Meteor 2-5 Rocket 4.2 17:58:23 10° N 18:03:44 39° ENE 18:09:08 10° SE
Cosmos 1092 Rocket 4.3 17:58:24 10° N 18:04:17 43° ENE 18:10:10 10° SSE
Okean-O 3.7 18:00:30 10° S 18:04:47 49° W 18:09:06 10° NNW
Cosmos 494 Rocket 3.9 18:00:40 10° NNW 18:05:57 72° ENE 18:11:12 10° SSE
Cosmos 2285 Rocket 3.9 18:00:11 10° SSW 18:06:28 79° ESE 18:12:50 10° NNE
CREW DRAGON DEMO-1 DEB 2.7 18:08:23 10° NW 18:11:25 79° NNE 18:12:32 35° ESE
Cosmos 1766 3.5 18:09:26 10° SSE 18:13:11 46° E 18:16:59 10° NNE
ISS -1.3 18:12:19 10° NW 18:14:28 16° N 18:16:31 10° NE
Ariane Rocket 3.5 18:14:00 21° ESE 18:16:46 37° ENE 18:21:26 10° N
Cosmos 2151 Rocket 4.4 18:14:37 10° SSW 18:19:01 56° W 18:23:27 10° N
Cosmos 1674 2.6 18:18:26 10° N 18:22:18 88° E 18:26:07 10° S
Lacrosse 4 Rocket 3.2 18:23:29 10° N 18:25:51 16° NE 18:25:51 16° NE
Cosmos 1269 Rocket 4.0 18:24:13 10° NNW 18:29:30 64° ENE 18:32:33 25° SE
H-2A R/B 2.2 18:24:43 10° S 18:29:42 73° WSW 18:34:52 10° NNW
DMSP B5D2-2 4.4 18:24:52 10° NNE 18:29:51 41° E 18:34:48 10° SSE
NOSS 3-2 (C) 4.2 18:22:43 10° NW 18:30:25 77° WSW 18:38:50 11° SSE
ARGOS 3.1 18:25:40 10° SSE 18:31:02 86° ENE 18:36:27 10° NNW
NOSS 3-4 (A) 3.4 18:26:12 10° SW 18:32:05 81° NW 18:38:21 10° NE
NOSS 3-4 (C) 3.4 18:26:19 10° SW 18:32:11 81° NW 18:38:28 10° NE
SJ-6B 3.1 18:37:26 42° ENE 18:37:26 42° ENE 18:40:43 10° N
OE (NEXTSAT) 4.1 18:33:47 10° WSW 18:37:15 79° SSE 18:37:29 72° ESE
CZ-2C R/B 2.7 18:31:50 10° NNE 18:37:22 57° E 18:42:52 10° S
Milstar 3 Cent rocket 3.7 18:32:20 10° WSW 18:38:37 24° S 18:40:40 20° SSE
Aureole 2 Rocket 4.1 18:38:25 10° SSW 18:39:38 21° S 18:39:38 21° S
CENTAUR R/B 3.5 18:33:57 10° NW 18:42:11 71° WSW 18:50:15 13° SSE
Gbstr 26 Del rocket 4.4 18:36:33 10° SSW 18:42:54 49° SE 18:46:36 28° ENE
Cosmos 1733 3.2 18:39:27 10° S 18:43:17 82° W 18:47:07 10° N
BREEZE-M DEB (TANK) 4.3 18:45:49 10° WSW 18:49:19 60° NNW 19:01:35 10° ENE
CZ-4 R/B 4.4 18:48:58 10° SW 18:51:39 16° W 18:54:21 10° NW
BREEZE-M TANK 3.2 18:42:55 10° W 18:51:56 69° NNW 18:53:09 43° NE
Cosmos 2082 Rocket 3.1 18:48:08 10° N 18:53:07 31° NE 18:53:09 31° ENE
ATLAS 2AS CENTAUR R/B 3.3 18:46:41 10° SW 18:54:36 72° NW 19:02:31 10° NNE
SL-08 RB Rocket 3.8 18:53:32 27° S 18:55:59 73° W 19:00:30 10° NNW
ATLAS 3B R/B 2.9 18:49:44 10° NNW 18:56:32 58° NE 18:58:39 43° ESE
Okean 1 Rocket 4.1 18:52:46 10° SSW 18:57:05 47° W 19:01:27 10° N
USA 186 2.6 18:59:19 51° WNW 18:59:19 51° WNW 19:02:04 10° NNW
Cosmos 1626 2.3 18:55:37 10° N 18:58:55 68° NNW 18:58:55 68° NNW
MetOp-A 4.0 18:58:44 47° SSE 19:00:16 76° ENE 19:05:38 10° N
Cosmos 1340 Rocket 2.9 18:59:10 39° SSW 19:00:32 75° W 19:04:33 10° N
Cosmos 2251 Rocket 4.3 19:03:06 10° N 19:07:19 37° NE 19:07:19 37° NE
Lacrosse 5 rocket 3.4 19:06:14 10° NNW 19:09:19 20° NNE 19:09:19 20° NNE
Resurs 01 Rocket 3.3 19:13:07 23° NNE 19:13:07 23° NNE 19:15:07 10° N
MOS 1 4.3 19:09:46 39° S 19:12:00 82° WSW 19:17:44 10° NNW
SPOT 3 Rocket 3.8 19:19:28 55° NNE 19:19:28 55° NNE 19:23:44 10° N
Cosmos 2278 Rocket 2.3 19:15:04 10° SSW 19:20:43 74° WNW 19:26:23 10° NNE
COSMOS 2406 3.4 19:19:40 10° NNW 19:25:18 66° WSW 19:26:16 56° SSW
Cosmos 1892 Rocket 4.3 19:23:34 10° NNW 19:26:55 49° NW 19:26:55 49° NW
COSMOS 2455 4.3 19:25:04 10° SSW 19:38:01 - NNE 19:27:13 23° SSW
OBJECT-B 4.0 19:37:54 11° NNW 19:37:54 11° NNW 19:38:06 10° NNW
Cosmos 1833 Rocket 2.9 19:34:18 10° NNW 19:39:47 68° W 19:39:47 68° W
ISS -0.2 19:49:26 10° NW 19:49:28 10° NW 19:49:28 10° NW
Cosmos 1655 Rocket 4.1 19:46:00 10° N 19:51:29 69° NNW 19:51:29 69° NNW
Cosmos 2098 Rocket 4.3 19:49:16 10° N 19:54:07 52° NNW 19:54:07 52° NNW
Lacrosse 4 Rocket 4.0 20:01:02 10° NW 20:02:10 18° NW 20:02:10 18° NW
Cosmos 2082 Rocket 4.0 20:32:03 10° NW 20:35:00 28° WNW 20:35:00 28° WNW
ATLAS 3B R/B 4.1 20:40:58 10° NW 20:45:55 30° W 20:45:55 30° W
